Frederick, MD

10:37 PM EST on December 14, 2017 (GMT -0500)
Frederick Municipal

Weather History for KFDK - April, 2013

Change the Weather History Date:

Tuesday, April 2, 2013

  Actual Average (KHGR) Record (KHGR)
Temperature  
Mean Temperature 34 °F -  
Max Temperature 44 °F 56 °F 79 °F (2003)
Min Temperature 23 °F 37 °F 28 °F (2013)
Degree Days  
Heating Degree Days 32    
Moisture  
Dew Point 22 °F    
Average Humidity 68    
Maximum Humidity 100    
Minimum Humidity 34    
Precipitation  
Precipitation 0.00 in - - ()
Sea Level Pressure  
Sea Level Pressure 30.10 in    
Wind  
Wind Speed 3 mph (NW)    
Max Wind Speed 15 mph    
Max Gust Speed 25 mph    
Visibility 10 miles    
Events      
Averages and records for this station are not official NWS values.
T = Trace of Precipitation, MM = Missing Value Source: NWS Daily Summary

Daily Weather History Graph

Daily Weather History Graph

Search for Another Location

Airport or City:

Trip Planner

Search our weather history database for the weather conditions in past years. The results will help you decide how hot, cold, wet, or windy it might be!

Date:

Astronomy

Apr. 02, 2013 Rise Set
Actual Time 6:51 AM EDT 7:34 PM EDT
Civil Twilight 6:24 AM EDT 8:01 PM EDT
Nautical Twilight 5:52 AM EDT 8:33 PM EDT
Astronomical Twilight 5:19 AM EDT 9:07 PM EDT
Moon 1:36 AM EDT (4/2) 11:41 AM EDT (4/2)
Length of Visible Light 13h 37m
Length of Day
12h 42m
Waning Gibbous, 56% of the Moon is Illuminated
Apr 2
Waning Gibbous
Apr 3
Last Quarter
Apr 10
New
Apr 18
First Quarter
Apr 25
Full

Hourly Weather History & Observations

Time (EDT) Temp. Windchill Dew Point Humidity Pressure Visibility Wind Dir Wind Speed Gust Speed Precip Events Conditions
12:15 AM 33.8 °F 30.8 °F 19.4 °F 56% 30.03 in 10.0 mi NNW 3.5 mph - N/A   Clear
12:35 AM 33.8 °F - 19.4 °F 56% 30.03 in 10.0 mi Calm Calm - N/A   Clear
12:55 AM 32.0 °F - 21.2 °F 64% 30.04 in 10.0 mi Calm Calm - N/A   Clear
1:15 AM 33.8 °F - 21.2 °F 60% 30.04 in 10.0 mi Calm Calm - N/A   Clear
1:35 AM 32.0 °F 28.7 °F 23.0 °F 69% 30.04 in 10.0 mi SE 3.5 mph - N/A   Clear
1:55 AM 30.2 °F - 26.6 °F 86% 30.04 in 10.0 mi Calm Calm - N/A   Scattered Clouds
2:15 AM 30.2 °F - 26.6 °F 86% 30.04 in 10.0 mi Calm Calm - N/A   Scattered Clouds
2:35 AM 28.4 °F - 26.6 °F 93% 30.04 in 10.0 mi Calm Calm - N/A   Mostly Cloudy
2:55 AM 28.4 °F - 26.6 °F 93% 30.04 in 10.0 mi Calm Calm - N/A   Mostly Cloudy
3:15 AM 28.4 °F - 26.6 °F 93% 30.03 in 10.0 mi Calm Calm - N/A   Mostly Cloudy
3:35 AM 28.4 °F - 24.8 °F 86% 30.03 in 10.0 mi Calm Calm - N/A   Overcast
3:55 AM 28.4 °F - 23.0 °F 80% 30.03 in 10.0 mi Calm Calm - N/A   Overcast
4:15 AM 28.4 °F - 24.8 °F 86% 30.04 in 10.0 mi Calm Calm - N/A   Mostly Cloudy
4:35 AM 28.4 °F - 24.8 °F 86% 30.04 in 10.0 mi Calm Calm - N/A   Scattered Clouds
4:55 AM 28.4 °F - 23.0 °F 80% 30.05 in 10.0 mi Calm Calm - N/A   Clear
5:15 AM 26.6 °F - 23.0 °F 86% 30.05 in 10.0 mi Calm Calm - N/A   Clear
5:35 AM 26.6 °F - 26.6 °F 100% 30.06 in 10.0 mi Calm Calm - N/A   Clear
5:55 AM 26.6 °F - 26.6 °F 100% 30.07 in 10.0 mi Calm Calm - N/A   Clear
6:15 AM 23.0 °F - 23.0 °F 100% 30.07 in 10.0 mi Calm Calm - N/A   Clear
6:35 AM 26.6 °F - 26.6 °F 100% 30.07 in 10.0 mi Calm Calm - N/A   Clear
6:45 AM 24.8 °F - 24.8 °F 100% 30.08 in 10.0 mi Calm Calm - N/A   Clear
6:47 AM 24.8 °F - 24.8 °F 100% 30.08 in 10.0 mi Calm Calm - N/A   Clear
7:45 AM 26.6 °F - 26.6 °F 100% 30.12 in 10.0 mi Calm Calm - N/A   Clear
8:55 AM 37.4 °F 30.3 °F 23.0 °F 56% 30.15 in 10.0 mi NW 10.4 mph 16.1 mph N/A   Clear
9:50 AM 39.2 °F 31.6 °F 19.4 °F 45% 30.15 in 10.0 mi NW 12.7 mph 20.7 mph N/A   Scattered Clouds
10:50 AM 39.2 °F 31.2 °F 19.4 °F 45% 30.15 in 10.0 mi NW 13.8 mph 19.6 mph N/A   Mostly Cloudy
11:52 AM 39.2 °F 33.6 °F 19.4 °F 45% 30.15 in 10.0 mi NW 8.1 mph 16.1 mph N/A   Mostly Cloudy
12:47 PM 39.2 °F 30.8 °F 19.4 °F 45% 30.14 in 10.0 mi NW 15.0 mph 20.7 mph N/A   Mostly Cloudy
1:45 PM 42.8 °F 35.8 °F 19.4 °F 39% 30.13 in 10.0 mi NW 13.8 mph 20.7 mph N/A   Mostly Cloudy
2:52 PM 44.6 °F 39.2 °F 19.4 °F 37% 30.11 in 10.0 mi NW 10.4 mph 23.0 mph N/A   Mostly Cloudy
3:48 PM 44.6 °F 38.1 °F 19.4 °F 37% 30.10 in 10.0 mi NW 13.8 mph 23.0 mph N/A   Scattered Clouds
4:59 PM 44.6 °F 38.8 °F 17.6 °F 34% 30.10 in 10.0 mi WNW 11.5 mph 25.3 mph N/A   Scattered Clouds
5:59 PM 44.6 °F 37.8 °F 17.6 °F 34% 30.11 in 10.0 mi WNW 15.0 mph 23.0 mph N/A   Clear
6:48 PM 42.8 °F 37.0 °F 15.8 °F 34% 30.13 in 10.0 mi NNW 10.4 mph - N/A   Clear
7:47 PM 39.2 °F 33.6 °F 15.8 °F 39% 30.14 in 10.0 mi NW 8.1 mph - N/A   Clear
9:00 PM 35.6 °F 31.7 °F 17.6 °F 48% 30.18 in 10.0 mi NNW 4.6 mph - N/A   Clear
9:20 PM 35.6 °F 31.7 °F 17.6 °F 48% 30.18 in 10.0 mi NNW 4.6 mph - N/A   Clear
9:40 PM 35.6 °F 32.8 °F 17.6 °F 48% 30.19 in 10.0 mi NNW 3.5 mph - N/A   Clear
10:00 PM 32.0 °F 28.7 °F 19.4 °F 60% 30.19 in 10.0 mi NNW 3.5 mph - N/A   Clear
10:20 PM 32.0 °F 28.7 °F 21.2 °F 64% 30.19 in 10.0 mi NNW 3.5 mph - N/A   Clear
10:40 PM 32.0 °F - 19.4 °F 60% 30.20 in 10.0 mi Calm Calm - N/A   Clear
11:00 PM 32.0 °F - 21.2 °F 64% 30.20 in 10.0 mi Calm Calm - N/A   Clear
11:20 PM 30.2 °F - 21.2 °F 69% 30.20 in 10.0 mi Calm Calm - N/A   Clear
11:40 PM 30.2 °F - 23.0 °F 75% 30.20 in 10.0 mi Calm Calm - N/A   Clear